Regional Weather Roundup
Issued by NWS San Angelo, TX

Home | Current Version | Previous Version | Text Only | Print | Product List | Glossary On
Versions: 1 2 3 4 5 6 7 8 9 10 11 12 13 14 15 16 17 18 19 20 21 22 23 24 25 26 27 28 29 30 31 32 33 34 35 36 37 38 39 40 41 42 43 44 45 46 47 48 49 50
000
ASUS44 KSJT 301210
RWRSJT
WEST CENTRAL TEXAS REGIONAL WEATHER ROUNDUP
NATIONAL WEATHER SERVICE SAN ANGELO TX
700 AM CDT TUE SEP 30 2014

NOTE: "FAIR" INDICATES FEW OR NO CLOUDS BELOW 12,000 FEET WITH NO
SIGNIFICANT WEATHER AND/OR OBSTRUCTIONS TO VISIBILITY.

TXZ049-054-064>066-071>073-076>078-098-099-113-114-127-128-139-140-
154-155-168>170-301300
...LOCATIONS ACROSS WEST CENTRAL TEXAS...

CITY           SKY/WX    TMP DP  RH WIND       PRES   REMARKS
SAN ANGELO     CLEAR     66  62  87 S7        29.90S
ABILENE        CLEAR     67  57  70 S5        29.91S
DYESS AFB      PTCLDY    62  55  77 S7        29.89S
JUNCTION       CLEAR     61  60  97 CALM      29.92S
SWEETWATER     CLEAR     66  61  85 S8        29.94S
BROWNWOOD      MOCLDY    57  55  94 CALM      29.92S
COLEMAN        SUNNY     60  54  79 E5        29.92S
SONORA         CLEAR     64  64 100 CALM      29.97R
OZONA          FAIR      61  59  94 CALM      29.95R
BRADY          CLEAR     64  57  77 CALM      29.92S
$$

TEXAS PANHANDLE/OKLAHOMA PANHANDLE

CITY           SKY/WX    TMP DP  RH WIND       PRES   REMARKS
AMARILLO       CLEAR     60  56  86 S14       29.91S
BORGER         CLEAR     64  57  78 S7        29.88S
CANADIAN       CLOUDY    66  57  71 SE8       29.88F
DALHART        CLEAR     57  55  93 S6        29.89F FOG
DUMAS          SUNNY     57  55  94 S8        29.88S
GUYMON         NOT AVBL
HEREFORD       SUNNY     58  57  97 S6        29.93S
PAMPA          PTSUNNY   62  54  75 SE7       29.90F
PERRYTON       CLOUDY    64  55  73 S13       29.87S
$$

SOUTHERN PANHANDLE/SOUTH PLAINS/ROLLING PLAINS

CITY           SKY/WX    TMP DP  RH WIND       PRES   REMARKS
LUBBOCK        PTCLDY    62  57  83 S9        29.91S
SNYDER         PTCLDY    62  58  84 S7        29.91S
CHILDRESS      MOCLDY    62  55  77 S8        29.88S
SEMINOLE       MOSUNNY   61  59  94 S5        29.93S
$$

PERMIAN BASIN

CITY           SKY/WX    TMP DP  RH WIND       PRES   REMARKS
MIDLAND        CLOUDY    65  59  81 S13       29.90S
ODESSA         CLOUDY    66  59  78 S9        29.91S
WINK           CLEAR     66  61  84 SE10      29.87S
$$

FAR WEST/SOUTHWEST MOUNTAINS/TRANS PECOS

CITY           SKY/WX    TMP DP  RH WIND       PRES   REMARKS
ALPINE         SUNNY     65  56  72 SW7       30.04S
DRYDEN           N/A     66  63  90 N6        29.89S
EL PASO        CLEAR     70  52  52 N3        29.95R
FORT STOCKTON  CLEAR     64  59  83 S7        29.90R
GUADALUPE PASS PTCLDY    62  54  74 W10       30.04S
MARFA          CLEAR     54  52  94 N3        30.05R
PECOS          SUNNY     62  59  88 CALM      29.87R
$$

DALLAS/FORT WORTH METROPLEX

CITY           SKY/WX    TMP DP  RH WIND       PRES   REMARKS
DFW AIRPORT    MOCLDY    70  65  84 SE3       29.90R
FTW MEACHAM    CLEAR     71  66  84 SE6       29.89S
DAL-EXECUTIVE  CLEAR     69  65  86 SE3       29.90R
GRAND PRAIRIE  CLEAR     72  64  78 MISG      29.91S
ADDISON        PTCLDY    72  64  78 E7        29.91S
MESQUITE       SUNNY     64  63  94 CALM      29.91R
LANCASTER      SUNNY     64  58  79 CALM      29.92R
$$

NORTH CENTRAL TEXAS

CITY           SKY/WX    TMP DP  RH WIND       PRES   REMARKS
SHRMAN/DENISON SUNNY     67  60  80 E6        29.92S
GAINESVILLE    CLEAR     65  60  85 CALM      29.93S
BRIDGEPORT     SUNNY     62  62 100 CALM      29.92R
DENTON         CLEAR     65  61  87 SE3       29.90S
WAXAHACHIE     MOSUNNY   67  64  93 CALM      29.92S
GRANBURY       SUNNY     68  64  86 SE3       29.91S
$$

WESTERN NORTH TEXAS

CITY           SKY/WX    TMP DP  RH WIND       PRES   REMARKS
WICHITA FALLS  CLEAR     63  60  90 S3        29.88R
VERNON         MOSUNNY   64  58  79 SE6       29.88F
BRECKENRIDGE   SUNNY     66  56  70 S3        29.90R
COMANCHE       CLEAR     61  56  84 SE3       29.92S
$$

CENTRAL AND SOUTH CENTRAL TEXAS

CITY           SKY/WX    TMP DP  RH WIND       PRES   REMARKS
AUSTIN/BERGSTM PTCLDY    62  61  96 CALM      29.89S
WACO           CLEAR     65  60  84 NE3       29.89S
HILLSBORO      SUNNY     69  65  86 CALM      29.91R
TEMPLE         PTCLDY    64  55  72 CALM      29.89S
KILLEEN-GRAY   PTCLDY    68  61  77 CALM      29.90S
FORT HOOD      CLEAR     68  61  78 CALM      29.90S
GEORGETOWN     CLEAR     63  61  94 CALM      29.91R
LAGO VISTA     FAIR      71  61  70 CALM      29.92S
SAN MARCOS     CLEAR     64  57  77 CALM      29.90S
NEW BRAUNFELS  CLEAR     66  62  87 NW3       29.88S
RANDOLPH AFB   PTCLDY    66  62  87 N5        29.90S
SAN ANTONIO    CLEAR     67  63  87 NW3       29.90R
STINSON        CLEAR     69  66  90 CALM      29.87S
PLEASANTON     NOT AVBL
LA GRANGE      MOCLDY    72  70  94 CALM      29.87S
GIDDINGS       SUNNY     67  64  89 CALM      29.93R
$$

EAST TEXAS

CITY           SKY/WX    TMP DP  RH WIND       PRES   REMARKS
PARIS          CLOUDY    68  57  68 E9        29.92S
CLARKSVILLE    NOT AVBL
TYLER          CLEAR     70  65  84 CALM      29.91R
LONGVIEW       MOCLDY    70  66  87 CALM      29.91R
PALESTINE      MOSUNNY   70  69  95 CALM      29.91S
NACOGDOCHES    CLOUDY    70  66  88 CALM      29.91S
$$

TEXAS HILL COUNTRY AND EDWARDS PLATEAU

CITY           SKY/WX    TMP DP  RH WIND       PRES   REMARKS
LLANO          SUNNY     61  61 100 CALM      29.94S
HORSESHOE BAY  FAIR      62  62 100 S3        29.92R
KERRVILLE      CLEAR     60  58  94 CALM      29.93S
FREDERICKSBRG  CLEAR     60  58  93 CALM      29.93S
ROCKSPRINGS    SUNNY     64  63  94 CALM      29.96S
HONDO          CLEAR     64  61  90 E3        29.91S
UVALDE         SUNNY     68  66  94 NE3       29.90S
DEL RIO        CLEAR     69  66  90 E7        29.86S
$$

SOUTHEAST TEXAS

CITY           SKY/WX    TMP DP  RH WIND       PRES   REMARKS
COLLEGE STN    MOCLDY    71  68  90 E5        29.88S
CALDWELL       SUNNY     66  66 100 CALM      29.92R
CROCKETT       MOSUNNY   72  70  94 CALM      29.92S FOG
BRENHAM        CLEAR     71  69  94 CALM      29.89S
HUNTSVILLE     CLOUDY    69  66  90 CALM      29.89R
CONROE         CLEAR     68  67  96 CALM      29.89R
HOUSTON BUSH   PTCLDY    72  70  93 CALM      29.87R
HOUSTON HOBBY  PTCLDY    75  73  93 CALM      29.87R
PERLAND        MOCLDY    74  71  91 CALM      29.88R FOG
WHARTON        CLOUDY    71  71  97 CALM      29.88S FOG
$$

THE UPPER TEXAS COAST

CITY           SKY/WX    TMP DP  RH WIND       PRES   REMARKS
ORANGE         MOSUNNY  N/A N/A N/A CALM      29.89S FOG
PORT ARTHUR    PTCLDY    74  72  93 CALM      29.87R
GALVESTON      CLEAR     76  75  97 NE6       29.87R
ANGLETON       CLOUDY    72  70  93 N5        29.87R FOG
BAY CITY       CLOUDY   N/A N/A N/A NE3       29.86S HAZE
$$

TEXAS COASTAL BEND, RIO GRANDE PLAINS DEEP SOUTH TEXAS

CITY           SKY/WX    TMP DP  RH WIND       PRES   REMARKS
VICTORIA       FOG       74  72  93 N5        29.87R VSB 1/4
BEEVILLE       FOG       72  72 100 N6        29.86R VSB 1/2
ROCKPORT       CLEAR     75  73  93 N6        29.84R
PORT ARANSAS   CLOUDY    75  73  92 SW3       29.84R
PORT LAVACA    PTSUNNY   73  72  97 N3        29.85S FOG
CORPUS CHRISTI CLOUDY    74  73  97 CALM      29.84R
KINGSVILLE NAS HVY RAIN  76  76 100 NE3       29.85R FOG
COTULLA        CLEAR     72  68  87 CALM      29.88R
LAREDO         CLEAR     73  73 100 CALM      29.88F
BROWNSVILLE    FOG       75  73  94 CALM      29.83S VSB 3/4
PORT ISABEL    FOG       75  74  96 NW5       29.82S VSB 1/4
HEBBRONVILLE     N/A     71  70  95 CALM      29.87S
MCALLEN        LGT RAIN  76  75  97 CALM      29.84R
WESLACO        CLOUDY    75  73  92 CALM      29.82F
FALFURRIAS     PTSUNNY   74  73  99 CALM      29.83S
EDINBURG       SUNNY     76  73  91 CALM      29.83S
$$


USA.gov is the U.S. government's official web portal to all federal, state and local government web resources and services.